contact:dominique.lefevre@mio.osupytheas.fr, maurice.libes@osupytheas.fr, didier.mallarino@osupytheas.fr
Project:EMSO http://www.emso-fr.org/EMSO-France
Depth: 2436.0 m
Title:EMSO Ligure Ouest : Data MII capteur CSTAR
DateTime,Latitude,Longitude,Instrument_Serial,Reference_Counts,Signal_Counts,Corrected_Signal_raw_counts,Calculated_Beam_c_inverse_meters,Internal_thermistor_counts
DateTime,Latitude,Longitude,Instrument_Serial,Reference_Counts,Signal_Counts,Corrected_Signal_raw_counts,Calculated_Beam_c_inverse_meters,Internal_thermistor_counts
2023-07-18T00:01:08,42.805,6.029,CST-1368DR,4247,4609,11516,01.218,552
2023-07-18T00:04:10,42.805,6.029,CST-1368DR,4247,4609,11516,01.218,552
2023-07-18T00:07:11,42.805,6.029,CST-1368DR,4247,4610,11519,01.217,552
2023-07-18T00:10:13,42.805,6.029,CST-1368DR,4247,4609,11515,01.219,552
2023-07-18T00:13:15,42.805,6.029,CST-1368DR,4247,4607,11512,01.220,552
2023-07-18T00:16:16,42.805,6.029,CST-1368DR,4247,4609,11515,01.219,552
2023-07-18T00:19:18,42.805,6.029,CST-1368DR,4247,4610,11518,01.218,552
2023-07-18T00:22:19,42.805,6.029,CST-1368DR,4247,4608,11514,01.219,552
2023-07-18T00:25:21,42.805,6.029,CST-1368DR,4247,4608,11513,01.219,552
2023-07-18T00:28:23,42.805,6.029,CST-1368DR,4247,4609,11515,01.219,552
2023-07-18T00:31:24,42.805,6.029,CST-1368DR,4247,4610,11518,01.218,552
2023-07-18T00:34:26,42.805,6.029,CST-1368DR,4247,4610,11519,01.217,552
2023-07-18T00:37:27,42.805,6.029,CST-1368DR,4247,4610,11518,01.218,552
2023-07-18T00:40:29,42.805,6.029,CST-1368DR,4247,4609,11516,01.218,552
2023-07-18T00:43:30,42.805,6.029,CST-1368DR,4247,4617,11535,01.212,552
2023-07-18T00:46:32,42.805,6.029,CST-1368DR,4247,4615,11530,01.213,552
2023-07-18T00:49:34,42.805,6.029,CST-1368DR,4247,4612,11523,01.216,552
2023-07-18T00:52:35,42.805,6.029,CST-1368DR,4247,4615,11530,01.213,552
2023-07-18T00:55:37,42.805,6.029,CST-1368DR,4247,4615,11531,01.213,552
2023-07-18T00:58:38,42.805,6.029,CST-1368DR,4247,4616,11533,01.212,552
2023-07-18T01:01:40,42.805,6.029,CST-1368DR,4247,4615,11531,01.213,552
2023-07-18T01:04:42,42.805,6.029,CST-1368DR,4247,4614,11528,01.214,552
2023-07-18T01:07:43,42.805,6.029,CST-1368DR,4247,4614,11528,01.214,552
2023-07-18T01:10:45,42.805,6.029,CST-1368DR,4247,4616,11532,01.213,552
2023-07-18T01:13:46,42.805,6.029,CST-1368DR,4247,4619,11541,01.210,552
2023-07-18T01:16:48,42.805,6.029,CST-1368DR,4247,4615,11531,01.213,552
2023-07-18T01:19:49,42.805,6.029,CST-1368DR,4247,4615,11531,01.213,552
2023-07-18T01:22:51,42.805,6.029,CST-1368DR,4247,4615,11530,01.213,552
2023-07-18T01:25:53,42.805,6.029,CST-1368DR,4247,4616,11533,01.212,552
2023-07-18T01:28:54,42.805,6.029,CST-1368DR,4247,4614,11529,01.214,552
2023-07-18T01:31:56,42.805,6.029,CST-1368DR,4247,4615,11531,01.213,552
2023-07-18T01:34:57,42.805,6.029,CST-1368DR,4247,4615,11531,01.213,552
2023-07-18T01:37:59,42.805,6.029,CST-1368DR,4247,4614,11529,01.214,552
2023-07-18T01:41:00,42.805,6.029,CST-1368DR,4247,4614,11529,01.214,552
2023-07-18T01:44:02,42.805,6.029,CST-1368DR,4247,4615,11531,01.213,552
2023-07-18T01:47:04,42.805,6.029,CST-1368DR,4247,4616,11533,01.212,552
2023-07-18T01:50:05,42.805,6.029,CST-1368DR,4247,4616,11533,01.212,552
2023-07-18T01:53:07,42.805,6.029,CST-1368DR,4247,4616,11533,01.212,552
2023-07-18T01:56:08,42.805,6.029,CST-1368DR,4247,4616,11533,01.212,552
2023-07-18T01:59:10,42.805,6.029,CST-1368DR,4247,4616,11532,01.213,552
2023-07-18T02:02:12,42.805,6.029,CST-1368DR,4247,4615,11531,01.213,552
2023-07-18T02:05:13,42.805,6.029,CST-1368DR,4247,4615,11530,01.213,552
2023-07-18T02:08:15,42.805,6.029,CST-1368DR,4247,4616,11532,01.213,552
2023-07-18T02:11:16,42.805,6.029,CST-1368DR,4247,4615,11530,01.213,552
2023-07-18T02:14:18,42.805,6.029,CST-1368DR,4247,4615,11530,01.213,552
2023-07-18T02:17:19,42.805,6.029,CST-1368DR,4247,4615,11531,01.213,552
2023-07-18T02:20:21,42.805,6.029,CST-1368DR,4247,4615,11530,01.213,552
2023-07-18T02:23:23,42.805,6.029,CST-1368DR,4247,4614,11527,01.214,552
2023-07-18T02:26:24,42.805,6.029,CST-1368DR,4247,4615,11530,01.213,552
2023-07-18T02:29:26,42.805,6.029,CST-1368DR,4247,4615,11531,01.213,552
2023-07-18T02:32:27,42.805,6.029,CST-1368DR,4247,4613,11525,01.215,552
2023-07-18T02:35:29,42.805,6.029,CST-1368DR,4247,4616,11532,01.213,552
2023-07-18T02:38:30,42.805,6.029,CST-1368DR,4247,4615,11531,01.213,552
2023-07-18T02:41:32,42.805,6.029,CST-1368DR,4247,4616,11533,01.212,552
2023-07-18T02:44:34,42.805,6.029,CST-1368DR,4247,4615,11530,01.213,552
2023-07-18T02:47:35,42.805,6.029,CST-1368DR,4247,4614,11528,01.214,552
2023-07-18T02:50:37,42.805,6.029,CST-1368DR,4247,4615,11531,01.213,552
2023-07-18T02:53:38,42.805,6.029,CST-1368DR,4247,4615,11531,01.213,552
2023-07-18T02:56:40,42.805,6.029,CST-1368DR,4247,4615,11530,01.213,552
2023-07-18T02:59:42,42.805,6.029,CST-1368DR,4247,4614,11528,01.214,552
2023-07-18T03:02:43,42.805,6.029,CST-1368DR,4247,4615,11530,01.213,552
2023-07-18T03:05:45,42.805,6.029,CST-1368DR,4247,4614,11529,01.214,552
2023-07-18T03:08:46,42.805,6.029,CST-1368DR,4247,4615,11530,01.213,552
2023-07-18T03:11:48,42.805,6.029,CST-1368DR,4247,4617,11535,01.212,552
2023-07-18T03:14:49,42.805,6.029,CST-1368DR,4247,4617,11535,01.212,552
2023-07-18T03:17:51,42.805,6.029,CST-1368DR,4247,4615,11530,01.213,552
2023-07-18T03:20:53,42.805,6.029,CST-1368DR,4247,4614,11529,01.214,552
2023-07-18T03:23:54,42.805,6.029,CST-1368DR,4247,4614,11528,01.214,552
2023-07-18T03:26:56,42.805,6.029,CST-1368DR,4247,4614,11529,01.214,552
2023-07-18T03:29:57,42.805,6.029,CST-1368DR,4247,4616,11532,01.213,552
2023-07-18T03:32:59,42.805,6.029,CST-1368DR,4247,4616,11533,01.212,552
2023-07-18T03:36:00,42.805,6.029,CST-1368DR,4247,4614,11529,01.214,552
2023-07-18T03:39:02,42.805,6.029,CST-1368DR,4247,4611,11521,01.216,552
2023-07-18T03:42:04,42.805,6.029,CST-1368DR,4247,4614,11528,01.214,552
2023-07-18T03:45:05,42.805,6.029,CST-1368DR,4247,4614,11527,01.214,552
2023-07-18T03:48:07,42.805,6.029,CST-1368DR,4247,4614,11528,01.214,552
2023-07-18T03:51:08,42.805,6.029,CST-1368DR,4247,4615,11531,01.213,552
2023-07-18T03:54:10,42.805,6.029,CST-1368DR,4247,4614,11528,01.214,552
2023-07-18T03:57:12,42.805,6.029,CST-1368DR,4247,4615,11531,01.213,552
2023-07-18T04:00:13,42.805,6.029,CST-1368DR,4247,4614,11529,01.214,552
2023-07-18T04:03:15,42.805,6.029,CST-1368DR,4247,4612,11523,01.216,552
2023-07-18T04:06:16,42.805,6.029,CST-1368DR,4247,4614,11528,01.214,552
2023-07-18T04:09:18,42.805,6.029,CST-1368DR,4247,4612,11524,01.215,552
2023-07-18T04:12:19,42.805,6.029,CST-1368DR,4247,4614,11527,01.214,552
2023-07-18T04:15:21,42.805,6.029,CST-1368DR,4247,4612,11523,01.216,552
2023-07-18T04:18:23,42.805,6.029,CST-1368DR,4247,4612,11523,01.216,552
2023-07-18T04:21:24,42.805,6.029,CST-1368DR,4247,4613,11525,01.215,552
2023-07-18T04:24:26,42.805,6.029,CST-1368DR,4247,4612,11523,01.216,552
2023-07-18T04:27:27,42.805,6.029,CST-1368DR,4247,4613,11526,01.215,552
2023-07-18T04:30:29,42.805,6.029,CST-1368DR,4247,4613,11526,01.215,552
2023-07-18T04:33:30,42.805,6.029,CST-1368DR,4247,4613,11525,01.215,552
2023-07-18T04:36:32,42.805,6.029,CST-1368DR,4247,4615,11530,01.213,552
2023-07-18T04:39:34,42.805,6.029,CST-1368DR,4247,4613,11525,01.215,552
2023-07-18T04:42:35,42.805,6.029,CST-1368DR,4247,4614,11528,01.214,552
2023-07-18T04:45:37,42.805,6.029,CST-1368DR,4247,4614,11527,01.214,552
2023-07-18T04:48:38,42.805,6.029,CST-1368DR,4247,4611,11521,01.216,552
2023-07-18T04:51:40,42.805,6.029,CST-1368DR,4247,4611,11521,01.216,552
2023-07-18T04:54:42,42.805,6.029,CST-1368DR,4247,4614,11528,01.214,552
2023-07-18T04:57:43,42.805,6.029,CST-1368DR,4247,4613,11525,01.215,552
2023-07-18T05:00:45,42.805,6.029,CST-1368DR,4247,4613,11526,01.215,552
2023-07-18T05:03:46,42.805,6.029,CST-1368DR,4247,4612,11522,01.216,552
2023-07-18T05:06:48,42.805,6.029,CST-1368DR,4247,4611,11521,01.216,552
2023-07-18T05:09:49,42.805,6.029,CST-1368DR,4247,4614,11528,01.214,552
2023-07-18T05:12:51,42.805,6.029,CST-1368DR,4247,4615,11530,01.213,552
2023-07-18T05:15:53,42.805,6.029,CST-1368DR,4247,4611,11520,01.217,552
2023-07-18T05:18:54,42.805,6.029,CST-1368DR,4247,4612,11523,01.216,552
2023-07-18T05:21:56,42.805,6.029,CST-1368DR,4247,4611,11520,01.217,552
2023-07-18T05:24:57,42.805,6.029,CST-1368DR,4247,4612,11523,01.216,552
2023-07-18T05:27:59,42.805,6.029,CST-1368DR,4247,4611,11521,01.216,552
2023-07-18T05:31:00,42.805,6.029,CST-1368DR,4247,4612,11523,01.216,552
2023-07-18T05:34:02,42.805,6.029,CST-1368DR,4247,4611,11521,01.216,552
2023-07-18T05:37:04,42.805,6.029,CST-1368DR,4247,4612,11523,01.216,552
2023-07-18T05:40:05,42.805,6.029,CST-1368DR,4247,4612,11522,01.216,552
2023-07-18T05:43:07,42.805,6.029,CST-1368DR,4247,4611,11520,01.217,552
2023-07-18T05:46:08,42.805,6.029,CST-1368DR,4247,4607,11510,01.220,552
2023-07-18T05:49:10,42.805,6.029,CST-1368DR,4247,4611,11521,01.216,552
2023-07-18T05:52:12,42.805,6.029,CST-1368DR,4247,4612,11522,01.216,552
2023-07-18T05:55:13,42.805,6.029,CST-1368DR,4247,4612,11523,01.216,552
2023-07-18T05:58:15,42.805,6.029,CST-1368DR,4247,4613,11525,01.215,552
2023-07-18T06:01:16,42.805,6.029,CST-1368DR,4247,4612,11523,01.216,552
2023-07-18T06:04:18,42.805,6.029,CST-1368DR,4247,4611,11521,01.216,552
2023-07-18T06:07:19,42.805,6.029,CST-1368DR,4247,4611,11521,01.216,552
2023-07-18T06:10:21,42.805,6.029,CST-1368DR,4247,4610,11519,01.217,552
2023-07-18T06:13:23,42.805,6.029,CST-1368DR,4247,4612,11524,01.215,552
2023-07-18T06:16:24,42.805,6.029,CST-1368DR,4247,4613,11525,01.215,552
2023-07-18T06:19:26,42.805,6.029,CST-1368DR,4247,4614,11528,01.214,552
2023-07-18T06:22:27,42.805,6.029,CST-1368DR,4247,4613,11525,01.215,552
2023-07-18T06:25:29,42.805,6.029,CST-1368DR,4247,4611,11521,01.216,552
2023-07-18T06:28:30,42.805,6.029,CST-1368DR,4247,4611,11521,01.216,552
2023-07-18T06:31:34,42.805,6.029,CST-1368DR,4247,4612,11523,01.216,552
2023-07-18T06:34:36,42.805,6.029,CST-1368DR,4247,4613,11525,01.215,552
2023-07-18T06:37:38,42.805,6.029,CST-1368DR,4247,4612,11524,01.215,552
2023-07-18T06:40:39,42.805,6.029,CST-1368DR,4247,4611,11520,01.217,552
2023-07-18T06:43:41,42.805,6.029,CST-1368DR,4247,4612,11523,01.216,552
2023-07-18T06:46:42,42.805,6.029,CST-1368DR,4247,4613,11525,01.215,552
2023-07-18T06:49:44,42.805,6.029,CST-1368DR,4247,4612,11524,01.215,552
2023-07-18T06:52:45,42.805,6.029,CST-1368DR,4247,4612,11523,01.216,552
2023-07-18T06:55:47,42.805,6.029,CST-1368DR,4247,4613,11526,01.215,552
2023-07-18T06:58:49,42.805,6.029,CST-1368DR,4247,4613,11525,01.215,552
2023-07-18T07:01:50,42.805,6.029,CST-1368DR,4247,4614,11529,01.214,552
2023-07-18T07:04:52,42.805,6.029,CST-1368DR,4247,4612,11524,01.215,552
2023-07-18T07:07:53,42.805,6.029,CST-1368DR,4247,4613,11526,01.215,552
2023-07-18T07:10:55,42.805,6.029,CST-1368DR,4247,4614,11528,01.214,552
2023-07-18T07:13:57,42.805,6.029,CST-1368DR,4247,4613,11525,01.215,552
2023-07-18T07:16:58,42.805,6.029,CST-1368DR,4247,4613,11525,01.215,552
2023-07-18T07:20:00,42.805,6.029,CST-1368DR,4247,4613,11525,01.215,552
2023-07-18T07:23:01,42.805,6.029,CST-1368DR,4247,4613,11525,01.215,552
2023-07-18T07:26:03,42.805,6.029,CST-1368DR,4247,4612,11523,01.216,552
2023-07-18T07:29:04,42.805,6.029,CST-1368DR,4247,4612,11523,01.216,552
2023-07-18T07:32:06,42.805,6.029,CST-1368DR,4247,4613,11525,01.215,552
2023-07-18T07:35:08,42.805,6.029,CST-1368DR,4247,4612,11524,01.215,552
2023-07-18T07:38:09,42.805,6.029,CST-1368DR,4247,4613,11526,01.215,552
2023-07-18T07:41:11,42.805,6.029,CST-1368DR,4247,4613,11526,01.215,552
2023-07-18T07:44:12,42.805,6.029,CST-1368DR,4247,4613,11526,01.215,552
2023-07-18T07:47:14,42.805,6.029,CST-1368DR,4247,4613,11526,01.215,552
2023-07-18T07:50:16,42.805,6.029,CST-1368DR,4247,4612,11523,01.216,552
2023-07-18T07:53:17,42.805,6.029,CST-1368DR,4247,4612,11523,01.216,552
2023-07-18T07:56:19,42.805,6.029,CST-1368DR,4247,4613,11525,01.215,552
2023-07-18T07:59:20,42.805,6.029,CST-1368DR,4247,4612,11523,01.216,552
2023-07-18T08:02:22,42.805,6.029,CST-1368DR,4247,4613,11525,01.215,552
2023-07-18T08:05:23,42.805,6.029,CST-1368DR,4247,4612,11523,01.216,552
2023-07-18T08:08:25,42.805,6.029,CST-1368DR,4247,4612,11523,01.216,552
2023-07-18T08:11:27,42.805,6.029,CST-1368DR,4247,4612,11523,01.216,552
2023-07-18T08:14:28,42.805,6.029,CST-1368DR,4247,4613,11525,01.215,552
2023-07-18T08:17:30,42.805,6.029,CST-1368DR,4247,4612,11523,01.216,552
2023-07-18T08:20:31,42.805,6.029,CST-1368DR,4247,4612,11523,01.216,552
2023-07-18T08:23:33,42.805,6.029,CST-1368DR,4247,4612,11523,01.216,552
2023-07-18T08:26:34,42.805,6.029,CST-1368DR,4247,4611,11520,01.217,552
2023-07-18T08:29:36,42.805,6.029,CST-1368DR,4247,4612,11522,01.216,552
2023-07-18T08:32:37,42.805,6.029,CST-1368DR,4247,4612,11523,01.216,552
2023-07-18T08:35:39,42.805,6.029,CST-1368DR,4247,4612,11523,01.216,552
2023-07-18T08:38:40,42.805,6.029,CST-1368DR,4247,4612,11523,01.216,552
2023-07-18T08:41:42,42.805,6.029,CST-1368DR,4247,4613,11525,01.215,552
2023-07-18T08:44:44,42.805,6.029,CST-1368DR,4247,4614,11528,01.214,552
2023-07-18T08:47:45,42.805,6.029,CST-1368DR,4247,4612,11522,01.216,552
2023-07-18T08:50:47,42.805,6.029,CST-1368DR,4247,4611,11520,01.217,552
2023-07-18T08:53:48,42.805,6.029,CST-1368DR,4247,4612,11523,01.216,552
2023-07-18T08:56:50,42.805,6.029,CST-1368DR,4247,4612,11523,01.216,552
2023-07-18T08:59:51,42.805,6.029,CST-1368DR,4247,4612,11523,01.216,552
2023-07-18T09:02:53,42.805,6.029,CST-1368DR,4247,4612,11523,01.216,552
2023-07-18T09:05:55,42.805,6.029,CST-1368DR,4247,4612,11523,01.216,552
2023-07-18T09:08:56,42.805,6.029,CST-1368DR,4247,4612,11524,01.215,552
2023-07-18T09:11:58,42.805,6.029,CST-1368DR,4247,4613,11525,01.215,552
2023-07-18T09:14:59,42.805,6.029,CST-1368DR,4247,4612,11524,01.215,552
2023-07-18T09:18:01,42.805,6.029,CST-1368DR,4247,4608,11514,01.219,552
2023-07-18T09:21:02,42.805,6.029,CST-1368DR,4247,4611,11521,01.216,552
2023-07-18T09:24:04,42.805,6.029,CST-1368DR,4247,4611,11520,01.217,552
2023-07-18T09:27:06,42.805,6.029,CST-1368DR,4247,4612,11523,01.216,552
2023-07-18T09:30:07,42.805,6.029,CST-1368DR,4247,4612,11523,01.216,552
2023-07-18T09:33:09,42.805,6.029,CST-1368DR,4247,4612,11524,01.215,552
2023-07-18T09:36:10,42.805,6.029,CST-1368DR,4247,4612,11522,01.216,552
2023-07-18T09:39:12,42.805,6.029,CST-1368DR,4246,4613,11528,01.214,552
2023-07-18T09:42:14,42.805,6.029,CST-1368DR,4247,4612,11523,01.216,552
2023-07-18T09:45:15,42.805,6.029,CST-1368DR,4247,4612,11522,01.216,552
2023-07-18T09:48:17,42.805,6.029,CST-1368DR,4247,4611,11520,01.217,552
2023-07-18T09:51:18,42.805,6.029,CST-1368DR,4247,4611,11520,01.217,552
2023-07-18T09:54:20,42.805,6.029,CST-1368DR,4247,4609,11516,01.218,552
2023-07-18T09:57:21,42.805,6.029,CST-1368DR,4247,4612,11522,01.216,552
2023-07-18T10:00:23,42.805,6.029,CST-1368DR,4247,4613,11525,01.215,552
2023-07-18T10:03:25,42.805,6.029,CST-1368DR,4247,4613,11526,01.215,552
2023-07-18T10:06:26,42.805,6.029,CST-1368DR,4247,4609,11516,01.218,552
2023-07-18T10:09:28,42.805,6.029,CST-1368DR,4247,4612,11523,01.216,552
2023-07-18T10:12:29,42.805,6.029,CST-1368DR,4246,4610,11521,01.216,553
2023-07-18T10:15:31,42.805,6.029,CST-1368DR,4247,4611,11520,01.217,552
2023-07-18T10:18:33,42.805,6.029,CST-1368DR,4247,4611,11520,01.217,552
2023-07-18T10:21:34,42.805,6.029,CST-1368DR,4247,4610,11518,01.218,552
2023-07-18T10:24:36,42.805,6.029,CST-1368DR,4247,4612,11523,01.216,552
2023-07-18T10:27:37,42.805,6.029,CST-1368DR,4246,4612,11525,01.215,552
2023-07-18T10:30:40,42.805,6.029,CST-1368DR,4246,4612,11525,01.215,552
2023-07-18T10:33:41,42.805,6.029,CST-1368DR,4246,4611,11524,01.215,552
2023-07-18T10:36:43,42.805,6.029,CST-1368DR,4246,4611,11523,01.216,552
2023-07-18T10:39:45,42.805,6.029,CST-1368DR,4246,4614,11530,01.213,552
2023-07-18T10:42:46,42.805,6.029,CST-1368DR,4246,4612,11527,01.214,552
2023-07-18T10:45:48,42.805,6.029,CST-1368DR,4246,4611,11524,01.215,552
2023-07-18T10:48:49,42.805,6.029,CST-1368DR,4246,4612,11526,01.215,552
2023-07-18T10:51:51,42.805,6.029,CST-1368DR,4246,4611,11524,01.215,552
2023-07-18T10:54:52,42.805,6.029,CST-1368DR,4247,4612,11523,01.216,552
2023-07-18T10:57:54,42.805,6.029,CST-1368DR,4247,4612,11523,01.216,552
2023-07-18T11:00:56,42.805,6.029,CST-1368DR,4247,4613,11525,01.215,552
2023-07-18T11:03:57,42.805,6.029,CST-1368DR,4246,4612,11525,01.215,552
2023-07-18T11:06:59,42.805,6.029,CST-1368DR,4246,4612,11525,01.215,552
2023-07-18T11:10:00,42.805,6.029,CST-1368DR,4246,4613,11527,01.214,552
2023-07-18T11:13:02,42.805,6.029,CST-1368DR,4246,4612,11525,01.215,552
2023-07-18T11:16:04,42.805,6.029,CST-1368DR,4247,4610,11518,01.218,552
2023-07-18T11:19:05,42.805,6.029,CST-1368DR,4247,4626,11558,01.204,552
2023-07-18T11:22:07,42.805,6.029,CST-1368DR,4247,4626,11558,01.204,552
2023-07-18T11:25:08,42.805,6.029,CST-1368DR,4247,4626,11558,01.204,552
2023-07-18T11:28:10,42.805,6.029,CST-1368DR,4247,4628,11562,01.202,552
2023-07-18T11:31:11,42.805,6.029,CST-1368DR,4247,4626,11558,01.204,552
2023-07-18T11:34:13,42.805,6.029,CST-1368DR,4247,4626,11558,01.204,552
2023-07-18T11:37:15,42.805,6.029,CST-1368DR,4247,4627,11560,01.203,552
2023-07-18T11:40:16,42.805,6.029,CST-1368DR,4247,4625,11556,01.204,552
2023-07-18T11:43:18,42.805,6.029,CST-1368DR,4247,4627,11560,01.203,552
2023-07-18T11:46:19,42.805,6.029,CST-1368DR,4247,4626,11558,01.204,552
2023-07-18T11:49:21,42.805,6.029,CST-1368DR,4247,4626,11558,01.204,552
2023-07-18T11:52:22,42.805,6.029,CST-1368DR,4247,4626,11559,01.203,552
2023-07-18T11:55:24,42.805,6.029,CST-1368DR,4247,4627,11560,01.203,552
2023-07-18T11:58:26,42.805,6.029,CST-1368DR,4247,4628,11562,01.202,552
2023-07-18T12:01:27,42.805,6.029,CST-1368DR,4247,4626,11559,01.203,552
2023-07-18T12:04:29,42.805,6.029,CST-1368DR,4247,4626,11558,01.204,552
2023-07-18T12:07:30,42.805,6.029,CST-1368DR,4247,4626,11558,01.204,552
2023-07-18T12:10:32,42.805,6.029,CST-1368DR,4247,4626,11558,01.204,552
2023-07-18T12:13:34,42.805,6.029,CST-1368DR,4247,4626,11558,01.204,552
2023-07-18T12:16:35,42.805,6.029,CST-1368DR,4247,4626,11559,01.203,552
2023-07-18T12:19:37,42.805,6.029,CST-1368DR,4247,4626,11558,01.204,552
2023-07-18T12:22:38,42.805,6.029,CST-1368DR,4247,4622,11547,01.207,552
2023-07-18T12:25:40,42.805,6.029,CST-1368DR,4247,4627,11561,01.203,552
2023-07-18T12:28:41,42.805,6.029,CST-1368DR,4247,4626,11558,01.204,552
2023-07-18T12:31:43,42.805,6.029,CST-1368DR,4247,4626,11558,01.204,552
2023-07-18T12:34:45,42.805,6.029,CST-1368DR,4247,4626,11557,01.204,552
2023-07-18T12:37:46,42.805,6.029,CST-1368DR,4247,4627,11561,01.203,552
2023-07-18T12:40:48,42.805,6.029,CST-1368DR,4246,4626,11561,01.203,552
2023-07-18T12:43:49,42.805,6.029,CST-1368DR,4246,4625,11559,01.203,552
2023-07-18T12:46:51,42.805,6.029,CST-1368DR,4247,4626,11559,01.203,552
2023-07-18T12:49:52,42.805,6.029,CST-1368DR,4247,4626,11559,01.203,552
2023-07-18T12:52:54,42.805,6.029,CST-1368DR,4247,4626,11558,01.204,552
2023-07-18T12:55:56,42.805,6.029,CST-1368DR,4246,4626,11560,01.203,552
2023-07-18T12:58:57,42.805,6.029,CST-1368DR,4247,4625,11555,01.205,552
2023-07-18T13:01:59,42.805,6.029,CST-1368DR,4247,4627,11560,01.203,552
2023-07-18T13:05:00,42.805,6.029,CST-1368DR,4246,4627,11563,01.202,552
2023-07-18T13:08:02,42.805,6.029,CST-1368DR,4247,4625,11555,01.205,552
2023-07-18T13:11:03,42.805,6.029,CST-1368DR,4246,4627,11564,01.202,552
2023-07-18T13:14:05,42.805,6.029,CST-1368DR,4246,4626,11562,01.202,552
2023-07-18T13:17:07,42.805,6.029,CST-1368DR,4246,4626,11560,01.203,552
2023-07-18T13:20:08,42.805,6.029,CST-1368DR,4247,4625,11555,01.205,552
2023-07-18T13:23:10,42.805,6.029,CST-1368DR,4247,4625,11556,01.204,552
2023-07-18T13:26:11,42.805,6.029,CST-1368DR,4247,4626,11557,01.204,552
2023-07-18T13:29:13,42.805,6.029,CST-1368DR,4247,4626,11559,01.203,552
2023-07-18T13:32:15,42.805,6.029,CST-1368DR,4247,4627,11560,01.203,552
2023-07-18T13:35:16,42.805,6.029,CST-1368DR,4247,4625,11556,01.204,552
2023-07-18T13:38:18,42.805,6.029,CST-1368DR,4247,4626,11559,01.203,552
2023-07-18T13:41:19,42.805,6.029,CST-1368DR,4247,4625,11556,01.204,552
2023-07-18T13:44:21,42.805,6.029,CST-1368DR,4247,4625,11556,01.204,552
2023-07-18T13:47:22,42.805,6.029,CST-1368DR,4246,4626,11561,01.203,552
2023-07-18T13:50:24,42.805,6.029,CST-1368DR,4246,4625,11558,01.204,552
2023-07-18T13:53:26,42.805,6.029,CST-1368DR,4246,4626,11560,01.203,552
2023-07-18T13:56:27,42.805,6.029,CST-1368DR,4246,4626,11561,01.203,552
2023-07-18T13:59:29,42.805,6.029,CST-1368DR,4246,4626,11562,01.202,552
2023-07-18T14:02:30,42.805,6.029,CST-1368DR,4246,4625,11557,01.204,552
2023-07-18T14:05:32,42.805,6.029,CST-1368DR,4246,4625,11558,01.204,552
2023-07-18T14:08:33,42.805,6.029,CST-1368DR,4246,4626,11560,01.203,552
2023-07-18T14:11:35,42.805,6.029,CST-1368DR,4246,4626,11561,01.203,552
2023-07-18T14:14:37,42.805,6.029,CST-1368DR,4246,4626,11561,01.203,552
2023-07-18T14:17:38,42.805,6.029,CST-1368DR,4246,4626,11560,01.203,552
2023-07-18T14:20:40,42.805,6.029,CST-1368DR,4246,4626,11560,01.203,552
2023-07-18T14:23:41,42.805,6.029,CST-1368DR,4246,4625,11559,01.203,552
2023-07-18T14:26:43,42.805,6.029,CST-1368DR,4246,4627,11563,01.202,552
2023-07-18T14:29:45,42.805,6.029,CST-1368DR,4246,4626,11560,01.203,552
2023-07-18T14:32:47,42.805,6.029,CST-1368DR,4246,4626,11562,01.202,552
2023-07-18T14:35:48,42.805,6.029,CST-1368DR,4246,4626,11561,01.203,552
2023-07-18T14:38:50,42.805,6.029,CST-1368DR,4246,4626,11560,01.203,552
2023-07-18T14:41:51,42.805,6.029,CST-1368DR,4246,4626,11561,01.203,552
2023-07-18T14:44:53,42.805,6.029,CST-1368DR,4246,4626,11560,01.203,552
2023-07-18T14:47:54,42.805,6.029,CST-1368DR,4246,4626,11560,01.203,552
2023-07-18T14:50:56,42.805,6.029,CST-1368DR,4246,4626,11560,01.203,552
2023-07-18T14:53:58,42.805,6.029,CST-1368DR,4246,4626,11561,01.203,552
2023-07-18T14:56:59,42.805,6.029,CST-1368DR,4246,4626,11561,01.203,552
2023-07-18T15:00:01,42.805,6.029,CST-1368DR,4246,4626,11561,01.203,552
2023-07-18T15:03:02,42.805,6.029,CST-1368DR,4246,4626,11560,01.203,552
2023-07-18T15:06:04,42.805,6.029,CST-1368DR,4246,4626,11562,01.202,552
2023-07-18T15:09:05,42.805,6.029,CST-1368DR,4246,4627,11563,01.202,552
2023-07-18T15:12:07,42.805,6.029,CST-1368DR,4246,4626,11562,01.202,552
2023-07-18T15:15:09,42.805,6.029,CST-1368DR,4246,4627,11563,01.202,552
2023-07-18T15:18:10,42.805,6.029,CST-1368DR,4246,4627,11564,01.202,552
2023-07-18T15:21:12,42.805,6.029,CST-1368DR,4246,4627,11563,01.202,552
2023-07-18T15:24:13,42.805,6.029,CST-1368DR,4246,4626,11562,01.202,552
2023-07-18T15:27:15,42.805,6.029,CST-1368DR,4246,4627,11564,01.202,552
2023-07-18T15:30:17,42.805,6.029,CST-1368DR,4246,4627,11563,01.202,552
2023-07-18T15:33:18,42.805,6.029,CST-1368DR,4246,4627,11563,01.202,552
2023-07-18T15:36:20,42.805,6.029,CST-1368DR,4246,4626,11561,01.203,552
2023-07-18T15:39:21,42.805,6.029,CST-1368DR,4246,4626,11561,01.203,552
2023-07-18T15:42:23,42.805,6.029,CST-1368DR,4246,4626,11562,01.202,552
2023-07-18T15:45:24,42.805,6.029,CST-1368DR,4246,4626,11560,01.203,552
2023-07-18T15:48:26,42.805,6.029,CST-1368DR,4246,4625,11558,01.204,552
2023-07-18T15:51:28,42.805,6.029,CST-1368DR,4246,4626,11561,01.203,552
2023-07-18T15:54:29,42.805,6.029,CST-1368DR,4246,4626,11560,01.203,552
2023-07-18T15:57:31,42.805,6.029,CST-1368DR,4246,4626,11560,01.203,552
2023-07-18T16:00:32,42.805,6.029,CST-1368DR,4246,4625,11559,01.203,552
2023-07-18T16:03:34,42.805,6.029,CST-1368DR,4246,4626,11560,01.203,552
2023-07-18T16:06:35,42.805,6.029,CST-1368DR,4246,4625,11557,01.204,552
2023-07-18T16:09:37,42.805,6.029,CST-1368DR,4246,4626,11560,01.203,552
2023-07-18T16:12:39,42.805,6.029,CST-1368DR,4246,4626,11560,01.203,552
2023-07-18T16:15:40,42.805,6.029,CST-1368DR,4246,4625,11558,01.204,552
2023-07-18T16:18:42,42.805,6.029,CST-1368DR,4246,4625,11558,01.204,552
2023-07-18T16:21:43,42.805,6.029,CST-1368DR,4246,4625,11557,01.204,552
2023-07-18T16:24:45,42.805,6.029,CST-1368DR,4246,4626,11560,01.203,552
2023-07-18T16:27:47,42.805,6.029,CST-1368DR,4246,4626,11560,01.203,552
2023-07-18T16:30:49,42.805,6.029,CST-1368DR,4246,4623,11554,01.205,552
2023-07-18T16:33:51,42.805,6.029,CST-1368DR,4246,4625,11558,01.204,552
2023-07-18T16:36:52,42.805,6.029,CST-1368DR,4246,4625,11557,01.204,552